CPA362 VHHH-ZSPD

Flight info

Callsign CPA362
Flight time 1h 58m
Altitude 35000
Route LEKEN V601 DOTMI/K0924S1070 A470 LJG B221 SHZ W58 BK BK91A
Aircraft B77W/H-SDE1E2E3FGHIJ2J3J4J5M1RWXY/LB1D1

Departure

Time 2026-05-07 08:51
Airport Hong Kong International Airport (VHHH)

Arrival

Time 2026-05-07 10:49
Airport Shanghai Pudong International Airport (ZSPD)
Time Latitude Longitude Altitude Speed Heading
2026-05-07 08:21 22.31354 113.92465 40 ft 0 kts 26°
2026-05-07 08:36 22.31349 113.92463 42 ft 3 kts 26°
2026-05-07 08:36 22.31332 113.92454 40 ft 3 kts 31°
2026-05-07 08:37 22.31316 113.92441 40 ft 3 kts 48°
2026-05-07 08:37 22.31305 113.92424 42 ft 3 kts 66°
2026-05-07 08:37 22.31299 113.92404 42 ft 3 kts 83°
2026-05-07 08:37 22.31298 113.92384 39 ft 3 kts 99°
2026-05-07 08:38 22.31301 113.92371 37 ft 0 kts 111°
2026-05-07 08:42 22.31292 113.92396 42 ft 14 kts 110°
2026-05-07 08:42 22.31240 113.92501 42 ft 16 kts 141°
2026-05-07 08:42 22.31136 113.92486 42 ft 16 kts 208°
2026-05-07 08:42 22.31037 113.92430 42 ft 16 kts 208°
2026-05-07 08:43 22.30937 113.92376 42 ft 16 kts 205°
2026-05-07 08:43 22.30840 113.92330 42 ft 14 kts 193°
2026-05-07 08:43 22.30748 113.92347 42 ft 13 kts 178°
2026-05-07 08:43 22.30698 113.92269 42 ft 14 kts 251°
2026-05-07 08:44 22.30667 113.92173 42 ft 14 kts 251°
2026-05-07 08:44 22.30633 113.92068 42 ft 16 kts 251°
2026-05-07 08:44 22.30593 113.91941 42 ft 19 kts 251°
2026-05-07 08:44 22.30550 113.91807 42 ft 19 kts 251°
2026-05-07 08:45 22.30506 113.91673 42 ft 19 kts 251°
2026-05-07 08:45 22.30463 113.91539 42 ft 19 kts 251°
2026-05-07 08:45 22.30419 113.91405 42 ft 19 kts 251°
2026-05-07 08:45 22.30376 113.91271 42 ft 19 kts 251°
2026-05-07 08:46 22.30333 113.91137 42 ft 19 kts 251°
2026-05-07 08:46 22.30290 113.91003 42 ft 19 kts 251°
2026-05-07 08:46 22.30246 113.90869 42 ft 19 kts 251°
2026-05-07 08:46 22.30197 113.90715 42 ft 24 kts 251°
2026-05-07 08:47 22.30140 113.90541 41 ft 25 kts 251°
2026-05-07 08:47 22.30084 113.90366 41 ft 25 kts 251°
2026-05-07 08:47 22.30028 113.90193 41 ft 25 kts 251°
2026-05-07 08:47 22.29971 113.90016 41 ft 25 kts 251°
2026-05-07 08:48 22.29916 113.89847 42 ft 23 kts 251°
2026-05-07 08:48 22.29867 113.89748 42 ft 14 kts 214°
2026-05-07 08:48 22.29793 113.89750 42 ft 7 kts 161°
2026-05-07 08:48 22.29757 113.89763 42 ft 6 kts 161°
2026-05-07 08:49 22.29717 113.89778 42 ft 7 kts 161°
2026-05-07 08:49 22.29663 113.89799 42 ft 9 kts 161°
2026-05-07 08:49 22.29634 113.89850 42 ft 9 kts 83°
2026-05-07 08:49 22.29649 113.89890 42 ft 0 kts 68°
2026-05-07 08:50 22.29661 113.89926 42 ft 20 kts 70°
2026-05-07 08:50 22.29778 113.90285 39 ft 91 kts 70°
2026-05-07 08:50 22.30077 113.91204 43 ft 165 kts 70°
2026-05-07 08:50 22.30516 113.92527 327 ft 194 kts 69°
2026-05-07 08:51 22.30982 113.93879 1237 ft 190 kts 73°
2026-05-07 08:51 22.31411 113.95235 2010 ft 195 kts 76°
2026-05-07 08:51 22.31820 113.96702 2450 ft 215 kts 75°
2026-05-07 08:51 22.32322 113.98313 2817 ft 239 kts 72°
2026-05-07 08:52 22.32905 114.00084 3280 ft 258 kts 71°
2026-05-07 08:52 22.33507 114.01946 3983 ft 267 kts 70°
2026-05-07 08:52 22.34118 114.03878 4714 ft 276 kts 77°
2026-05-07 08:52 22.34112 114.05990 5281 ft 291 kts 108°
2026-05-07 08:53 22.33074 114.07801 6292 ft 284 kts 140°
2026-05-07 08:53 22.31353 114.08833 6947 ft 287 kts 171°
2026-05-07 08:53 22.29379 114.08881 7783 ft 283 kts 191°
2026-05-07 08:53 22.27450 114.08597 8656 ft 282 kts 185°
2026-05-07 08:54 22.25485 114.08658 9396 ft 288 kts 179°
2026-05-07 08:54 22.23513 114.08736 10368 ft 281 kts 183°
2026-05-07 08:54 22.21531 114.08716 11153 ft 286 kts 184°
2026-05-07 08:54 22.19475 114.08672 11374 ft 315 kts 184°
2026-05-07 08:55 22.17250 114.08905 11812 ft 330 kts 165°
2026-05-07 08:55 22.15170 114.10172 12100 ft 363 kts 140°
2026-05-07 08:55 22.13671 114.12484 12324 ft 390 kts 112°
2026-05-07 08:55 22.12812 114.15249 12957 ft 393 kts 109°
2026-05-07 08:56 22.11818 114.18023 13582 ft 404 kts 116°
2026-05-07 08:56 22.10487 114.20740 14098 ft 415 kts 120°
2026-05-07 08:56 22.09068 114.23513 14607 ft 426 kts 120°
2026-05-07 08:56 22.07499 114.26203 15282 ft 425 kts 131°
2026-05-07 08:57 22.05303 114.28296 15827 ft 420 kts 147°
2026-05-07 08:57 22.02872 114.30099 16276 ft 427 kts 147°
2026-05-07 08:57 22.00430 114.31955 16850 ft 431 kts 147°
2026-05-07 08:57 21.97993 114.33860 17457 ft 434 kts 146°
2026-05-07 08:58 21.95548 114.35790 18040 ft 437 kts 146°
2026-05-07 08:58 21.93083 114.37739 18523 ft 441 kts 146°
2026-05-07 08:58 21.90596 114.39699 18978 ft 445 kts 146°
2026-05-07 08:58 21.88159 114.41748 19363 ft 447 kts 137°
2026-05-07 08:59 21.86303 114.44481 19667 ft 459 kts 117°
2026-05-07 08:59 21.85296 114.47750 20139 ft 463 kts 101°
2026-05-07 08:59 21.85146 114.51172 20631 ft 462 kts 86°
2026-05-07 08:59 21.85426 114.54633 20961 ft 468 kts 84°
2026-05-07 09:00 21.85763 114.58179 21355 ft 472 kts 84°
2026-05-07 09:00 21.86091 114.61655 21827 ft 474 kts 84°
2026-05-07 09:00 21.86405 114.65191 22304 ft 476 kts 84°
2026-05-07 09:00 21.86699 114.68758 22750 ft 479 kts 84°
2026-05-07 09:01 21.86979 114.72348 23146 ft 482 kts 85°
2026-05-07 09:01 21.87252 114.75955 23545 ft 485 kts 85°
2026-05-07 09:01 21.87525 114.79591 23883 ft 488 kts 85°
2026-05-07 09:01 21.87800 114.83240 24229 ft 490 kts 85°
2026-05-07 09:02 21.88077 114.86914 24567 ft 492 kts 85°
2026-05-07 09:02 21.88354 114.90589 24896 ft 494 kts 85°
2026-05-07 09:02 21.88590 114.94294 25224 ft 497 kts 86°
2026-05-07 09:02 21.88719 114.98031 25540 ft 499 kts 88°
2026-05-07 09:03 21.88801 115.01731 25835 ft 502 kts 88°
2026-05-07 09:03 21.88880 115.05501 26148 ft 504 kts 88°
2026-05-07 09:03 21.88972 115.09282 26439 ft 506 kts 88°
2026-05-07 09:03 21.89080 115.13081 26748 ft 509 kts 88°
2026-05-07 09:04 21.89197 115.16903 27049 ft 511 kts 87°
2026-05-07 09:04 21.89316 115.20729 27349 ft 513 kts 87°
2026-05-07 09:04 21.89435 115.24578 27632 ft 515 kts 87°
2026-05-07 09:04 21.89550 115.28451 27898 ft 518 kts 88°
2026-05-07 09:05 21.89663 115.32328 28165 ft 520 kts 88°
2026-05-07 09:05 21.89773 115.36230 28411 ft 522 kts 88°
2026-05-07 09:05 21.89884 115.40147 28655 ft 524 kts 88°
2026-05-07 09:05 21.89994 115.44084 28891 ft 526 kts 88°
2026-05-07 09:06 21.90104 115.48025 29125 ft 528 kts 88°
2026-05-07 09:06 21.90214 115.51986 29342 ft 530 kts 88°
2026-05-07 09:06 21.90323 115.55962 29544 ft 531 kts 88°
2026-05-07 09:06 21.90445 115.59946 29736 ft 533 kts 86°
2026-05-07 09:07 21.90780 115.63928 29917 ft 534 kts 81°
2026-05-07 09:07 21.91454 115.67811 30067 ft 534 kts 76°
2026-05-07 09:07 21.92282 115.71713 30259 ft 534 kts 75°
2026-05-07 09:07 21.93127 115.75609 30507 ft 533 kts 75°
2026-05-07 09:08 21.93958 115.79493 30792 ft 531 kts 76°
2026-05-07 09:08 21.94769 115.83368 31057 ft 530 kts 76°
2026-05-07 09:08 21.95565 115.87251 31302 ft 530 kts 76°
2026-05-07 09:08 21.96350 115.91127 31557 ft 529 kts 76°
2026-05-07 09:09 21.97131 115.94993 31812 ft 528 kts 76°
2026-05-07 09:09 21.97911 115.98854 32064 ft 527 kts 76°
2026-05-07 09:09 21.98693 116.02717 32311 ft 526 kts 75°
2026-05-07 09:09 21.99474 116.06570 32553 ft 524 kts 75°
2026-05-07 09:10 22.00609 116.10269 32599 ft 520 kts 60°
2026-05-07 09:10 22.02629 116.13465 32693 ft 514 kts 43°
2026-05-07 09:10 22.05342 116.15898 32932 ft 504 kts 28°
2026-05-07 09:10 22.08403 116.17567 33251 ft 496 kts 18°
2026-05-07 09:11 22.11671 116.18670 33558 ft 488 kts
2026-05-07 09:11 22.15014 116.18955 33748 ft 479 kts 355°
2026-05-07 09:11 22.18355 116.18815 33864 ft 481 kts 354°
2026-05-07 09:11 22.21693 116.18620 34029 ft 481 kts 354°
2026-05-07 09:12 22.25026 116.18431 34273 ft 479 kts 354°
2026-05-07 09:12 22.28349 116.18268 34528 ft 477 kts 354°
2026-05-07 09:12 22.31666 116.18132 34758 ft 476 kts 355°
2026-05-07 09:12 22.33901 116.18050 34821 ft 477 kts 355°
2026-05-07 09:13 22.40498 116.17833 34900 ft 476 kts 355°
2026-05-07 09:13 22.48233 116.17584 34912 ft 475 kts 355°
2026-05-07 09:14 22.53718 116.17402 34918 ft 474 kts 355°
2026-05-07 09:14 22.60310 116.17182 34915 ft 474 kts 355°
2026-05-07 09:15 22.66902 116.16993 34914 ft 474 kts 358°
2026-05-07 09:15 22.70188 116.17475 34915 ft 481 kts 10°
2026-05-07 09:15 22.73375 116.18635 34928 ft 486 kts 19°
2026-05-07 09:16 22.76381 116.20374 34917 ft 494 kts 31°
2026-05-07 09:16 22.79133 116.22627 34930 ft 496 kts 34°
2026-05-07 09:16 22.84510 116.27299 34919 ft 499 kts 34°
2026-05-07 09:17 22.90030 116.31969 34923 ft 501 kts 33°
2026-05-07 09:17 22.95570 116.36572 34924 ft 503 kts 33°
2026-05-07 09:18 23.01107 116.41146 34922 ft 504 kts 33°
2026-05-07 09:18 23.06705 116.45760 34918 ft 505 kts 33°
2026-05-07 09:19 23.12305 116.50387 34925 ft 505 kts 33°
2026-05-07 09:19 23.17896 116.55017 34919 ft 505 kts 33°
2026-05-07 09:20 23.23488 116.59652 34917 ft 505 kts 33°
2026-05-07 09:20 23.29047 116.64265 34918 ft 505 kts 33°
2026-05-07 09:21 23.34632 116.68905 34915 ft 505 kts 33°
2026-05-07 09:21 23.40219 116.73550 34913 ft 505 kts 33°
2026-05-07 09:22 23.45650 116.78423 34918 ft 509 kts 41°
2026-05-07 09:22 23.50564 116.83993 34926 ft 510 kts 43°
2026-05-07 09:23 23.55441 116.89630 34919 ft 511 kts 43°
2026-05-07 09:23 23.60351 116.95234 34913 ft 511 kts 43°
2026-05-07 09:24 23.65287 117.00836 34922 ft 511 kts 43°
2026-05-07 09:24 23.70182 117.06400 34922 ft 512 kts 43°
2026-05-07 09:25 23.75120 117.12024 34922 ft 513 kts 43°
2026-05-07 09:25 23.80260 117.17387 34920 ft 510 kts 38°
2026-05-07 09:26 23.85579 117.22512 34920 ft 510 kts 37°
2026-05-07 09:26 23.90897 117.27648 34927 ft 510 kts 38°
2026-05-07 09:27 23.96197 117.32823 34921 ft 511 kts 38°
2026-05-07 09:28 24.04105 117.40581 34907 ft 511 kts 38°
2026-05-07 09:28 24.09390 117.45768 34913 ft 510 kts 38°
2026-05-07 09:29 24.14638 117.51028 34911 ft 512 kts 41°
2026-05-07 09:29 24.19487 117.56778 34908 ft 513 kts 44°
2026-05-07 09:30 24.24261 117.62599 34904 ft 513 kts 44°
2026-05-07 09:30 24.29060 117.68406 34895 ft 513 kts 44°
2026-05-07 09:31 24.33833 117.74146 34890 ft 513 kts 44°
2026-05-07 09:31 24.38636 117.79924 34907 ft 512 kts 44°
2026-05-07 09:32 24.43436 117.85708 34890 ft 513 kts 44°
2026-05-07 09:32 24.48247 117.91516 34892 ft 514 kts 44°
2026-05-07 09:33 24.53058 117.97333 34876 ft 514 kts 44°
2026-05-07 09:33 24.57876 118.03138 34893 ft 514 kts 43°
2026-05-07 09:34 24.62839 118.08775 34892 ft 513 kts 41°
2026-05-07 09:34 24.67822 118.14399 34883 ft 513 kts 42°
2026-05-07 09:35 24.72769 118.20051 34889 ft 513 kts 41°
2026-05-07 09:35 24.77726 118.25693 34887 ft 513 kts 41°
2026-05-07 09:36 24.82655 118.31305 34909 ft 512 kts 41°
2026-05-07 09:36 24.87601 118.36947 34905 ft 512 kts 41°
2026-05-07 09:37 24.92544 118.42596 34886 ft 512 kts 41°
2026-05-07 09:37 24.97485 118.48250 34898 ft 511 kts 41°
2026-05-07 09:38 25.02421 118.53905 34910 ft 511 kts 41°
2026-05-07 09:38 25.07363 118.59573 34902 ft 512 kts 41°
2026-05-07 09:39 25.12230 118.65239 34892 ft 512 kts 43°
2026-05-07 09:39 25.17032 118.71049 34900 ft 511 kts 43°
2026-05-07 09:40 25.21822 118.76855 34921 ft 512 kts 43°
2026-05-07 09:40 25.26637 118.82665 34921 ft 513 kts 43°
2026-05-07 09:41 25.31432 118.88452 34924 ft 514 kts 43°
2026-05-07 09:41 25.36287 118.94285 34927 ft 515 kts 43°
2026-05-07 09:42 25.41218 119.00038 34914 ft 516 kts 42°
2026-05-07 09:42 25.46167 119.05791 34917 ft 515 kts 42°
2026-05-07 09:43 25.51096 119.11555 34921 ft 515 kts 43°
2026-05-07 09:43 25.56017 119.17331 34917 ft 515 kts 43°
2026-05-07 09:44 25.60940 119.23117 34916 ft 516 kts 43°
2026-05-07 09:44 25.65859 119.28905 34919 ft 515 kts 43°
2026-05-07 09:45 25.70770 119.34613 34909 ft 512 kts 38°
2026-05-07 09:45 25.76542 119.39045 34924 ft 500 kts 22°
2026-05-07 09:46 25.83002 119.41722 34925 ft 493 kts 11°
2026-05-07 09:46 25.89600 119.43840 34911 ft 494 kts 11°
2026-05-07 09:47 25.96200 119.46016 34908 ft 495 kts 12°
2026-05-07 09:47 26.02793 119.48253 34922 ft 495 kts 12°
2026-05-07 09:48 26.09399 119.50506 34914 ft 496 kts 12°
2026-05-07 09:48 26.15963 119.52742 34910 ft 495 kts 12°
2026-05-07 09:49 26.22462 119.55364 34912 ft 500 kts 20°
2026-05-07 09:49 26.28549 119.59241 34919 ft 506 kts 27°
2026-05-07 09:50 26.34464 119.63509 34917 ft 506 kts 28°
2026-05-07 09:50 26.40364 119.67704 34916 ft 505 kts 27°
2026-05-07 09:51 26.46312 119.71884 34926 ft 505 kts 27°
2026-05-07 09:51 26.52274 119.76068 34909 ft 505 kts 27°
2026-05-07 09:52 26.58227 119.80236 34919 ft 506 kts 27°
2026-05-07 09:52 26.64200 119.84427 34921 ft 506 kts 27°
2026-05-07 09:53 26.70171 119.88626 34921 ft 507 kts 27°
2026-05-07 09:53 26.76155 119.92842 34926 ft 507 kts 27°
2026-05-07 09:54 26.82136 119.97058 34922 ft 509 kts 27°
2026-05-07 09:54 26.88132 120.01292 34926 ft 510 kts 27°
2026-05-07 09:55 26.94097 120.05531 34929 ft 511 kts 27°
2026-05-07 09:55 27.00113 120.09819 34930 ft 512 kts 27°
2026-05-07 09:56 27.06126 120.14105 34934 ft 512 kts 27°
2026-05-07 09:56 27.12154 120.18406 34939 ft 513 kts 27°
2026-05-07 09:57 27.18197 120.22672 34935 ft 513 kts 26°
2026-05-07 09:57 27.24268 120.26915 34928 ft 513 kts 27°
2026-05-07 09:58 27.29306 120.30451 34928 ft 513 kts 27°
2026-05-07 09:58 27.36328 120.35395 34928 ft 512 kts 27°
2026-05-07 09:59 27.41375 120.38967 34925 ft 512 kts 27°
2026-05-07 09:59 27.47396 120.43259 34924 ft 512 kts 27°
2026-05-07 10:00 27.53373 120.47527 34921 ft 512 kts 27°
2026-05-07 10:00 27.59395 120.51828 34925 ft 512 kts 27°
2026-05-07 10:01 27.65416 120.56135 34910 ft 512 kts 27°
2026-05-07 10:01 27.71462 120.60360 34914 ft 508 kts 22°
2026-05-07 10:02 27.77989 120.63076 34935 ft 495 kts
2026-05-07 10:02 27.84752 120.64048 34938 ft 487 kts 358°
2026-05-07 10:03 27.91516 120.64564 34937 ft 488 kts 358°
2026-05-07 10:03 27.98273 120.65168 34924 ft 491 kts 359°
2026-05-07 10:04 28.05089 120.65817 34933 ft 491 kts 359°
2026-05-07 10:04 28.11902 120.66490 34923 ft 491 kts 358°
2026-05-07 10:05 28.18709 120.67165 34932 ft 490 kts 358°
2026-05-07 10:05 28.25509 120.67839 34927 ft 490 kts 358°
2026-05-07 10:06 28.32296 120.68511 34914 ft 488 kts 358°
2026-05-07 10:06 28.39006 120.69175 34922 ft 487 kts 358°
2026-05-07 10:07 28.45751 120.69845 34906 ft 486 kts 358°
2026-05-07 10:07 28.52493 120.70518 34930 ft 488 kts 357°
2026-05-07 10:08 28.59298 120.71200 34913 ft 493 kts 357°
2026-05-07 10:08 28.66149 120.71893 34928 ft 495 kts 357°
2026-05-07 10:09 28.73025 120.72598 34932 ft 497 kts 358°
2026-05-07 10:09 28.79934 120.73354 34918 ft 499 kts 357°
2026-05-07 10:10 28.86843 120.74101 34910 ft 498 kts 357°
2026-05-07 10:10 28.93690 120.74814 34907 ft 496 kts 356°
2026-05-07 10:11 29.00558 120.75519 34912 ft 494 kts 356°
2026-05-07 10:11 29.07395 120.76223 34915 ft 492 kts 356°
2026-05-07 10:12 29.14210 120.76929 34895 ft 490 kts 357°
2026-05-07 10:12 29.21002 120.77634 34906 ft 489 kts 357°
2026-05-07 10:13 29.27741 120.78333 34915 ft 490 kts 357°
2026-05-07 10:13 29.34528 120.79038 34926 ft 490 kts 357°
2026-05-07 10:14 29.41332 120.79749 34916 ft 490 kts 357°
2026-05-07 10:14 29.48114 120.80457 34920 ft 489 kts 357°
2026-05-07 10:15 29.54877 120.81191 34912 ft 488 kts
2026-05-07 10:15 29.58191 120.82277 34915 ft 507 kts 18°
2026-05-07 10:15 29.61233 120.84449 34927 ft 524 kts 33°
2026-05-07 10:15 29.63730 120.87568 34919 ft 537 kts 50°
2026-05-07 10:16 29.65785 120.91182 34937 ft 541 kts 53°
2026-05-07 10:16 29.69778 120.98565 34928 ft 545 kts 53°
2026-05-07 10:17 29.73872 121.05925 34908 ft 546 kts 52°
2026-05-07 10:17 29.78050 121.13234 34900 ft 546 kts 52°
2026-05-07 10:18 29.82207 121.20492 34918 ft 546 kts 52°
2026-05-07 10:18 29.86369 121.27810 34916 ft 545 kts 52°
2026-05-07 10:19 29.91050 121.34481 34885 ft 525 kts 31°
2026-05-07 10:19 29.94106 121.36612 34931 ft 507 kts 19°
2026-05-07 10:19 29.97268 121.38434 34904 ft 508 kts 20°
2026-05-07 10:20 30.03566 121.42196 34916 ft 512 kts 21°
2026-05-07 10:20 30.09856 121.46113 34920 ft 514 kts 21°
2026-05-07 10:21 30.16111 121.50047 34916 ft 515 kts 21°
2026-05-07 10:21 30.22417 121.54003 34912 ft 516 kts 22°
2026-05-07 10:22 30.28710 121.57987 34913 ft 515 kts 22°
2026-05-07 10:22 30.34957 121.62056 34911 ft 514 kts 23°
2026-05-07 10:23 30.41142 121.66215 34910 ft 515 kts 25°
2026-05-07 10:23 30.47108 121.70497 34896 ft 489 kts 25°
2026-05-07 10:23 30.49965 121.72525 34895 ft 473 kts 25°
2026-05-07 10:24 30.52734 121.74474 34893 ft 456 kts 24°
2026-05-07 10:24 30.55524 121.75895 34900 ft 425 kts
2026-05-07 10:24 30.58361 121.76320 34930 ft 411 kts 353°
2026-05-07 10:24 30.61204 121.76024 34911 ft 400 kts 339°
2026-05-07 10:25 30.63824 121.75096 34935 ft 392 kts 334°
2026-05-07 10:25 30.68976 121.73048 34924 ft 395 kts 334°
2026-05-07 10:26 30.74218 121.71032 34927 ft 398 kts 335°
2026-05-07 10:26 30.79498 121.69043 34927 ft 399 kts 335°
2026-05-07 10:26 30.82131 121.68056 34794 ft 395 kts 335°
2026-05-07 10:27 30.84712 121.67091 34158 ft 384 kts 335°
2026-05-07 10:27 30.87320 121.66402 33100 ft 391 kts 352°
2026-05-07 10:27 30.90063 121.66784 32000 ft 406 kts 12°
2026-05-07 10:27 30.92639 121.68232 31014 ft 416 kts 31°
2026-05-07 10:28 30.94720 121.70534 30150 ft 421 kts 49°
2026-05-07 10:28 30.96117 121.73519 29178 ft 423 kts 73°
2026-05-07 10:28 30.96418 121.76893 28195 ft 418 kts 99°
2026-05-07 10:28 30.95568 121.80053 27247 ft 405 kts 125°
2026-05-07 10:29 30.93760 121.82447 26324 ft 386 kts 152°
2026-05-07 10:29 30.91389 121.83657 25424 ft 364 kts 178°
2026-05-07 10:29 30.88959 121.83527 24536 ft 342 kts 203°
2026-05-07 10:30 30.84483 121.81880 22778 ft 340 kts 195°
2026-05-07 10:30 30.82116 121.81657 21912 ft 342 kts 184°
2026-05-07 10:30 30.79759 121.81919 21282 ft 334 kts 176°
2026-05-07 10:30 30.77565 121.82410 21430 ft 313 kts 174°
2026-05-07 10:31 30.75523 121.83108 21401 ft 304 kts 154°
2026-05-07 10:31 30.73969 121.84841 21461 ft 324 kts 120°
2026-05-07 10:31 30.73311 121.87339 21513 ft 325 kts 97°
2026-05-07 10:31 30.72778 121.89855 21527 ft 320 kts 120°
2026-05-07 10:32 30.71462 121.91884 21555 ft 312 kts 146°
2026-05-07 10:32 30.69680 121.93277 21563 ft 309 kts 155°
2026-05-07 10:32 30.67797 121.94449 21557 ft 317 kts 158°
2026-05-07 10:32 30.65797 121.95622 21303 ft 324 kts 158°
2026-05-07 10:33 30.63760 121.96702 20578 ft 321 kts 169°
2026-05-07 10:33 30.61559 121.97098 19915 ft 322 kts 179°
2026-05-07 10:33 30.59289 121.97315 19258 ft 332 kts 180°
2026-05-07 10:33 30.56950 121.97508 18603 ft 342 kts 180°
2026-05-07 10:34 30.54575 121.97689 17846 ft 339 kts 180°
2026-05-07 10:34 30.52229 121.97861 16849 ft 338 kts 180°
2026-05-07 10:34 30.49883 121.98025 15877 ft 337 kts 180°
2026-05-07 10:34 30.47551 121.98183 14939 ft 335 kts 180°
2026-05-07 10:35 30.45235 121.98335 14018 ft 332 kts 180°
2026-05-07 10:35 30.42940 121.98465 13041 ft 328 kts 184°
2026-05-07 10:35 30.40771 121.97915 12009 ft 316 kts 211°
2026-05-07 10:35 30.39157 121.96276 11054 ft 307 kts 237°
2026-05-07 10:36 30.38236 121.94080 10145 ft 303 kts 255°
2026-05-07 10:36 30.37941 121.91690 9159 ft 300 kts 271°
2026-05-07 10:36 30.38292 121.89324 8166 ft 298 kts 290°
2026-05-07 10:36 30.39321 121.87258 7204 ft 297 kts 311°
2026-05-07 10:37 30.40934 121.85775 6262 ft 297 kts 331°
2026-05-07 10:37 30.42856 121.84956 5440 ft 292 kts 348°
2026-05-07 10:37 30.44827 121.84883 4992 ft 275 kts
2026-05-07 10:37 30.46659 121.85052 4642 ft 258 kts
2026-05-07 10:38 30.48390 121.85218 4353 ft 245 kts
2026-05-07 10:38 30.50068 121.85378 4101 ft 240 kts
2026-05-07 10:38 30.51719 121.85534 3917 ft 235 kts
2026-05-07 10:38 30.53337 121.85682 3845 ft 239 kts
2026-05-07 10:39 30.55075 121.85838 3797 ft 258 kts
2026-05-07 10:39 30.56854 121.85996 3696 ft 255 kts
2026-05-07 10:39 30.58621 121.86151 3607 ft 255 kts
2026-05-07 10:39 30.60402 121.86305 3524 ft 260 kts
2026-05-07 10:40 30.62216 121.86463 3458 ft 268 kts
2026-05-07 10:40 30.64065 121.86624 3366 ft 265 kts
2026-05-07 10:40 30.65905 121.86784 3287 ft 266 kts
2026-05-07 10:40 30.67752 121.86943 3191 ft 267 kts
2026-05-07 10:41 30.69601 121.87102 3102 ft 265 kts
2026-05-07 10:41 30.71446 121.87262 3026 ft 266 kts
2026-05-07 10:41 30.73299 121.87421 2941 ft 266 kts
2026-05-07 10:41 30.75127 121.87577 2849 ft 260 kts
2026-05-07 10:42 30.76927 121.87728 2762 ft 261 kts
2026-05-07 10:42 30.78753 121.87889 2705 ft 267 kts
2026-05-07 10:42 30.80607 121.88050 2616 ft 265 kts
2026-05-07 10:42 30.82405 121.88202 2572 ft 259 kts
2026-05-07 10:43 30.84165 121.88350 2487 ft 250 kts
2026-05-07 10:43 30.85872 121.88496 2386 ft 242 kts
2026-05-07 10:43 30.87521 121.88640 2302 ft 233 kts
2026-05-07 10:43 30.89105 121.88776 2228 ft 223 kts
2026-05-07 10:44 30.90601 121.88905 2188 ft 209 kts
2026-05-07 10:44 30.92014 121.89028 2082 ft 200 kts
2026-05-07 10:44 30.93417 121.89151 2050 ft 202 kts
2026-05-07 10:44 30.94785 121.89269 1979 ft 190 kts
2026-05-07 10:45 30.96039 121.89191 1975 ft 176 kts 341°
2026-05-07 10:45 30.97216 121.88697 2006 ft 185 kts 341°
2026-05-07 10:45 30.98424 121.88241 2005 ft 179 kts 342°
2026-05-07 10:45 30.99591 121.87804 1989 ft 175 kts 341°
2026-05-07 10:46 31.00720 121.87378 1967 ft 169 kts 341°
2026-05-07 10:46 31.01813 121.86969 1979 ft 162 kts 341°
2026-05-07 10:46 31.02895 121.86565 2002 ft 164 kts 341°
2026-05-07 10:46 31.03986 121.86153 1989 ft 163 kts 342°
2026-05-07 10:47 31.05052 121.85750 1961 ft 161 kts 342°
2026-05-07 10:47 31.06190 121.85333 1483 ft 177 kts 342°
2026-05-07 10:47 31.07335 121.84895 1081 ft 167 kts 342°
2026-05-07 10:47 31.08369 121.84492 781 ft 146 kts 342°
2026-05-07 10:48 31.09270 121.84131 676 ft 139 kts 345°
2026-05-07 10:48 31.10195 121.83793 590 ft 143 kts 345°
2026-05-07 10:48 31.11136 121.83451 431 ft 141 kts 344°
2026-05-07 10:48 31.11759 121.83209 271 ft 141 kts 344°
2026-05-07 10:49 31.12986 121.82749 39 ft 135 kts 344°
2026-05-07 10:49 31.13788 121.82450 28 ft 104 kts 342°
2026-05-07 10:49 31.14190 121.82299 27 ft 74 kts 342°
2026-05-07 10:49 31.14532 121.82172 28 ft 31 kts 342°
2026-05-07 10:50 31.14714 121.82027 28 ft 29 kts 318°
2026-05-07 10:50 31.14788 121.81950 28 ft 11 kts 318°
2026-05-07 10:50 31.14858 121.81876 28 ft 16 kts 317°
2026-05-07 10:50 31.14933 121.81814 30 ft 14 kts 336°
2026-05-07 10:51 31.14983 121.81758 28 ft 7 kts 275°
2026-05-07 10:51 31.14960 121.81684 27 ft 13 kts 249°
2026-05-07 10:51 31.14931 121.81565 28 ft 18 kts 255°
2026-05-07 10:51 31.14886 121.81405 30 ft 23 kts 251°
2026-05-07 10:52 31.14840 121.81244 29 ft 15 kts 251°
2026-05-07 10:52 31.14806 121.81125 31 ft 13 kts 252°
2026-05-07 10:52 31.14829 121.81042 28 ft 12 kts 333°
2026-05-07 10:52 31.14908 121.81008 28 ft 12 kts 341°
2026-05-07 10:53 31.14979 121.80969 30 ft 11 kts 315°
2026-05-07 10:53 31.14986 121.80917 29 ft 5 kts 247°
2026-05-07 10:53 31.14978 121.80891 29 ft 3 kts 249°
2026-05-07 10:53 31.14971 121.80869 30 ft 3 kts 250°
2026-05-07 10:54 31.14970 121.80867 30 ft 0 kts 250°